Retour au catalogue

STARLINK-36921

ActifCommunicationsSSO
NORAD 68019·PAYLOAD·🇺🇸 United States

Lancé Mar 1, 2026 depuis Vandenberg Space Force Base

Loading…

Prochains Passages (prochaines 24 heures)

TLE

FraisSource: CelesTrak SupGP

Époque: Sep 15, 2026, 03:54 UTC

1 68019C 26040E   26258.16298611  .00072136  00000+0  22396-2 0  2583
2 68019  97.2858 205.5294 0001834  87.8429  26.7138 15.33397435    17

Suivez STARLINK-36921 en temps réel avec AllMySat

Download on the App Store